TimeCDT,TemperatureF,Dew PointF,Humidity,Sea Level PressureIn,VisibilityMPH,Wind Direction,Wind SpeedMPH,Gust SpeedMPH,PrecipitationIn,Events,Conditions,WindDirDegrees,DateUTC
12:53 AM,73.9,71.1,91,30.07,6.0,Calm,Calm,-,N/A,,Clear,0,2013-06-22 05:53:00
1:53 AM,73.0,71.1,93,30.06,6.0,Calm,Calm,-,N/A,,Clear,0,2013-06-22 06:53:00
2:53 AM,72.0,70.0,93,30.06,6.0,Calm,Calm,-,N/A,,Clear,0,2013-06-22 07:53:00
3:53 AM,71.1,69.1,93,30.06,7.0,Calm,Calm,-,N/A,,Clear,0,2013-06-22 08:53:00
4:53 AM,72.0,70.0,93,30.06,6.0,Calm,Calm,-,N/A,,Clear,0,2013-06-22 09:53:00
5:53 AM,72.0,69.1,91,30.08,6.0,Calm,Calm,-,N/A,,Clear,0,2013-06-22 10:53:00
6:53 AM,73.0,70.0,90,30.08,5.0,Calm,Calm,-,N/A,,Clear,0,2013-06-22 11:53:00
7:53 AM,75.0,70.0,84,30.09,8.0,ESE,5.8,-,N/A,,Clear,120,2013-06-22 12:53:00
8:53 AM,80.1,73.0,79,30.09,10.0,Calm,Calm,-,N/A,,Clear,0,2013-06-22 13:53:00
9:53 AM,82.9,71.1,67,30.10,10.0,Calm,Calm,-,N/A,,Clear,0,2013-06-22 14:53:00
10:53 AM,86.0,71.1,61,30.11,10.0,SSE,6.9,-,N/A,,Mostly Cloudy,160,2013-06-22 15:53:00
11:53 AM,86.0,70.0,59,30.12,10.0,Calm,Calm,-,N/A,,Scattered Clouds,0,2013-06-22 16:53:00
12:53 PM,87.1,70.0,57,30.11,10.0,Variable,4.6,-,N/A,,Scattered Clouds,0,2013-06-22 17:53:00
1:53 PM,89.1,70.0,53,30.08,10.0,East,5.8,-,N/A,,Clear,100,2013-06-22 18:53:00
2:53 PM,90.0,68.0,48,30.06,10.0,Variable,4.6,-,N/A,,Clear,0,2013-06-22 19:53:00
3:53 PM,91.0,66.9,45,30.03,10.0,NE,3.5,-,N/A,,Clear,50,2013-06-22 20:53:00
4:53 PM,89.1,68.0,50,30.03,10.0,East,3.5,-,N/A,,Scattered Clouds,80,2013-06-22 21:53:00
5:53 PM,89.1,66.9,48,30.01,10.0,Calm,Calm,-,N/A,,Clear,0,2013-06-22 22:53:00
6:48 PM,84.2,69.8,62,30.02,10.0,ENE,8.1,-,N/A,Thunderstorm,Scattered Clouds,70,2013-06-22 23:48:00
6:53 PM,84.0,69.1,61,30.01,10.0,South,9.2,-,0.00,Rain-Thunderstorm,Light Rain,170,2013-06-22 23:53:00
7:03 PM,84.2,71.6,66,30.02,10.0,South,6.9,-,0.00,,Mostly Cloudy,180,2013-06-23 00:03:00
7:20 PM,80.6,68.0,65,30.03,10.0,ESE,6.9,-,0.00,Thunderstorm,Thunderstorm,120,2013-06-23 00:20:00
7:27 PM,78.8,69.8,74,30.03,10.0,SE,4.6,-,0.00,Rain-Thunderstorm,Light Thunderstorms and Rain,140,2013-06-23 00:27:00
7:36 PM,75.2,71.6,89,30.03,1.8,NNE,5.8,-,0.15,Rain-Thunderstorm,Heavy Thunderstorms and Rain,20,2013-06-23 00:36:00
7:45 PM,75.2,71.6,89,30.04,1.5,NE,5.8,-,0.23,Rain-Thunderstorm,Heavy Rain,40,2013-06-23 00:45:00
7:53 PM,73.0,72.0,96,30.03,1.0,North,4.6,-,0.38,Rain-Thunderstorm,Heavy Rain,10,2013-06-23 00:53:00
8:05 PM,73.4,73.4,100,30.05,1.0,North,8.1,-,0.23,Rain-Thunderstorm,Heavy Rain,10,2013-06-23 01:05:00
8:12 PM,73.4,73.4,100,30.05,2.0,North,8.1,-,0.31,Rain-Thunderstorm,Heavy Rain,10,2013-06-23 01:12:00
8:28 PM,73.4,71.6,94,30.05,3.0,North,4.6,-,0.49,Rain,Heavy Rain,350,2013-06-23 01:28:00
8:53 PM,73.9,72.0,93,30.04,8.0,North,6.9,-,0.52,Rain,Light Rain,360,2013-06-23 01:53:00
9:53 PM,73.9,71.1,91,30.04,10.0,Calm,Calm,-,0.01,,Mostly Cloudy,0,2013-06-23 02:53:00
10:53 PM,73.9,72.0,93,30.05,8.0,Calm,Calm,-,N/A,,Scattered Clouds,0,2013-06-23 03:53:00
11:53 PM,73.9,72.0,93,30.05,5.0,Calm,Calm,-,N/A,,Partly Cloudy,0,2013-06-23 04:53:00